Weather History for CYQR - March, 2013

Change the Weather History Date:

Tuesday, March 12, 2013

  Actual Average Record
Temperature  
Mean Temperature 6 °F -  
Max Temperature 17 °F 22 °F 50 °F (2007)
Min Temperature -5 °F 5 °F -20 °F (2009)
Degree Days  
Heating Degree Days 59    
Moisture  
Dew Point 5 °F    
Average Humidity 86    
Maximum Humidity 92    
Minimum Humidity 76    
Precipitation  
Precipitation 0.00 in - - ()
Sea Level Pressure  
Sea Level Pressure 30.37 in    
Wind  
Wind Speed 7 mph ()    
Max Wind Speed 21 mph    
Max Gust Speed -    
Visibility 14.1 miles    
Events      
Averages and records for this station are not official NWS values.
T = Trace of Precipitation, MM = Missing Value Source: Averaged Metar Reports

Daily Weather History Graph

Daily Weather History Graph

Search for Another Location

Airport or City:

Trip Planner

Search our weather history database for the weather conditions in past years. The results will help you decide how hot, cold, wet, or windy it might be!

Date:

Astronomy

Mar. 12, 2013 Rise Set
Actual Time 7:18 AM CST 6:59 PM CST
Civil Twilight 6:45 AM CST 7:31 PM CST
Nautical Twilight 6:07 AM CST 8:09 PM CST
Astronomical Twilight 5:29 AM CST 8:48 PM CST
Moon 7:16 AM CST (3/12) 8:30 PM CST (3/12)
Length of Visible Light 12h 45m
Length of Day
11h 41m
New Moon, 1% of the Moon is Illuminated
Mar 12
New Moon
Mar 19
First Quarter
Mar 27
Full
Apr 2
Last Quarter
Apr 10
New

Hourly Weather History & Observations

Time (CST) Temp. Windchill Dew Point Humidity Pressure Visibility Wind Dir Wind Speed Gust Speed Precip Events Conditions
12:00 AM 9 °F - 5 °F 76% 30.30 in 9 mi NNW 9.2 mph - -  
12:00 AM 10.4 °F -4.1 °F 5.0 °F 79% 30.29 in 15.0 mi NNW 11.5 mph - N/A   Partly Cloudy
1:00 AM 6.8 °F -0.1 °F 3.2 °F 85% 30.32 in 15.0 mi SSW 3.5 mph - N/A   Clear
2:00 AM 5.0 °F -10.8 °F 3.2 °F 92% 30.34 in 15.0 mi NW 11.5 mph - N/A   Clear
4:00 AM 3.2 °F - -0.4 °F 85% 30.37 in 15.0 mi WNW 2.3 mph - N/A   Partly Cloudy
5:00 AM -0.4 °F -12.0 °F -2.2 °F 92% 30.38 in 15.0 mi NW 5.8 mph - N/A   Partly Cloudy
6:00 AM -1 °F - -3 °F 86% 30.40 in 9 mi NNW 6.9 mph - -  
7:00 AM -5.8 °F -19.9 °F -7.6 °F 92% 30.41 in 15.0 mi WNW 6.9 mph - N/A   Partly Cloudy
8:00 AM -5.8 °F - -7.6 °F 92% 30.41 in 15.0 mi Calm Calm - N/A   Partly Cloudy
9:00 AM -0.4 °F - -2.2 °F 92% 30.42 in 15.0 mi Calm Calm - N/A   Partly Cloudy
10:00 AM -0.4 °F - -2.2 °F 92% 30.44 in 15.0 mi WSW 2.3 mph - N/A   Partly Cloudy
11:00 AM 6.8 °F - 5.0 °F 92% 30.43 in 15.0 mi NNE 2.3 mph - N/A   Partly Cloudy
12:00 PM 9 °F - 6 °F 81% 30.43 in 9 mi SW 4.6 mph - -  
12:00 PM 8.6 °F -1.3 °F 6.8 °F 92% 30.43 in 15.0 mi SW 5.8 mph - N/A   Partly Cloudy
1:00 PM 12.2 °F 4.3 °F 8.6 °F 85% 30.43 in 15.0 mi WSW 4.6 mph - N/A   Partly Cloudy
2:00 PM 15.8 °F 8.6 °F 10.4 °F 79% 30.40 in 15.0 mi South 4.6 mph - N/A   Scattered Clouds
3:00 PM 17.6 °F 8.2 °F 12.2 °F 79% 30.38 in 15.0 mi SSE 6.9 mph - N/A   Scattered Clouds
4:00 PM 15.8 °F 5.1 °F 12.2 °F 86% 30.36 in 15.0 mi SSE 8.1 mph - N/A   Scattered Clouds
5:00 PM 15.8 °F 2.7 °F 12.2 °F 86% 30.35 in 15.0 mi SSE 11.5 mph - N/A   Mostly Cloudy
6:00 PM 14 °F - 10 °F 77% 30.34 in 9 mi SE 11.5 mph - -  
6:00 PM 14.0 °F 0.5 °F 10.4 °F 86% 30.34 in 15.0 mi SE 11.5 mph - N/A   Mostly Cloudy
7:00 PM 12.2 °F -4.3 °F 8.6 °F 85% 30.32 in 15.0 mi SE 16.1 mph - N/A   Mostly Cloudy
8:00 PM 10.4 °F -5.4 °F 8.6 °F 92% 30.33 in 15.0 mi SSE 13.8 mph - N/A   Scattered Clouds
9:00 PM 10.4 °F -6.6 °F 6.8 °F 85% 30.32 in 15.0 mi SE 16.1 mph - N/A   Mostly Cloudy
10:00 PM 10.4 °F -7.7 °F 6.8 °F 85% 30.30 in 15.0 mi SE 18.4 mph - N/A   Mostly Cloudy
11:00 PM 8.6 °F -11.0 °F 6.8 °F 92% 30.27 in 15.0 mi SE 20.7 mph - N/A   Scattered Clouds